TimeEDT,TemperatureF,Dew PointF,Humidity,Sea Level PressureIn,VisibilityMPH,Wind Direction,Wind SpeedMPH,Gust SpeedMPH,PrecipitationIn,Events,Conditions,WindDirDegrees,DateUTC
12:15 AM,57.2,55.4,94,29.72,10.0,Calm,Calm,-,N/A,,Mostly Cloudy,0,2013-06-17 04:15:00
12:35 AM,57.2,55.4,94,29.72,10.0,Calm,Calm,-,N/A,,Overcast,0,2013-06-17 04:35:00
12:55 AM,57.2,55.4,94,29.72,9.0,Calm,Calm,-,N/A,,Mostly Cloudy,0,2013-06-17 04:55:00
1:15 AM,55.4,53.6,94,29.71,6.0,Calm,Calm,-,N/A,,Partly Cloudy,0,2013-06-17 05:15:00
1:35 AM,55.4,53.6,94,29.72,5.0,Calm,Calm,-,N/A,,Clear,0,2013-06-17 05:35:00
1:55 AM,53.6,51.8,94,29.72,5.0,WNW,3.5,-,N/A,,Clear,290,2013-06-17 05:55:00
2:15 AM,53.6,51.8,94,29.72,4.0,West,3.5,-,N/A,,Clear,270,2013-06-17 06:15:00
2:35 AM,53.6,53.6,100,29.71,5.0,West,5.8,-,N/A,,Clear,280,2013-06-17 06:35:00
2:55 AM,55.4,55.4,100,29.71,5.0,WNW,4.6,-,N/A,,Clear,300,2013-06-17 06:55:00
3:15 AM,53.6,53.6,100,29.72,4.0,West,3.5,-,N/A,,Clear,280,2013-06-17 07:15:00
3:35 AM,55.4,53.6,94,29.72,5.0,Calm,Calm,-,N/A,,Clear,0,2013-06-17 07:35:00
3:55 AM,53.6,53.6,100,29.73,5.0,WSW,3.5,-,N/A,,Clear,250,2013-06-17 07:55:00
4:15 AM,53.6,53.6,100,29.73,3.0,Calm,Calm,-,N/A,,Clear,0,2013-06-17 08:15:00
4:35 AM,51.8,50.0,94,29.74,2.0,Calm,Calm,-,N/A,,Clear,0,2013-06-17 08:35:00
4:55 AM,51.8,51.8,100,29.75,3.0,West,4.6,-,N/A,,Clear,270,2013-06-17 08:55:00
5:15 AM,53.6,53.6,100,29.76,5.0,West,5.8,-,N/A,,Clear,270,2013-06-17 09:15:00
5:35 AM,55.4,53.6,94,29.76,5.0,West,6.9,-,N/A,,Clear,280,2013-06-17 09:35:00
5:55 AM,55.4,55.4,100,29.77,6.0,West,5.8,-,N/A,,Clear,280,2013-06-17 09:55:00
6:15 AM,57.2,55.4,94,29.77,8.0,West,3.5,-,N/A,,Clear,280,2013-06-17 10:15:00
6:35 AM,57.2,57.2,100,29.78,10.0,WNW,5.8,-,N/A,,Clear,290,2013-06-17 10:35:00
6:55 AM,60.8,57.2,88,29.79,10.0,West,6.9,-,N/A,,Clear,280,2013-06-17 10:55:00
7:15 AM,60.8,57.2,88,29.79,10.0,West,9.2,-,N/A,,Clear,280,2013-06-17 11:15:00
7:35 AM,62.6,59.0,88,29.79,10.0,West,9.2,-,N/A,,Clear,260,2013-06-17 11:35:00
7:55 AM,64.4,57.2,77,29.79,10.0,West,9.2,-,N/A,,Clear,270,2013-06-17 11:55:00
8:15 AM,66.2,57.2,73,29.79,10.0,WNW,6.9,-,N/A,,Clear,290,2013-06-17 12:15:00
8:35 AM,68.0,57.2,68,29.79,10.0,West,12.7,-,N/A,,Clear,280,2013-06-17 12:35:00
8:55 AM,69.8,57.2,64,29.80,10.0,West,10.4,-,N/A,,Clear,270,2013-06-17 12:55:00
9:15 AM,69.8,57.2,64,29.79,10.0,West,8.1,-,N/A,,Clear,270,2013-06-17 13:15:00
9:35 AM,69.8,57.2,64,29.79,10.0,West,8.1,-,N/A,,Clear,260,2013-06-17 13:35:00
9:55 AM,71.6,57.2,60,29.79,10.0,West,6.9,-,N/A,,Clear,280,2013-06-17 13:55:00
10:15 AM,71.6,57.2,60,29.78,10.0,WSW,5.8,-,N/A,,Clear,250,2013-06-17 14:15:00
10:35 AM,73.4,57.2,57,29.78,10.0,West,8.1,-,N/A,,Clear,260,2013-06-17 14:35:00
10:55 AM,73.4,57.2,57,29.78,10.0,SW,9.2,-,N/A,,Clear,230,2013-06-17 14:55:00
11:15 AM,69.8,59.0,68,29.78,10.0,South,10.4,-,N/A,,Clear,170,2013-06-17 15:15:00
11:35 AM,69.8,59.0,68,29.78,10.0,South,8.1,-,N/A,,Clear,170,2013-06-17 15:35:00
11:55 AM,68.0,59.0,73,29.78,10.0,South,12.7,16.1,N/A,,Clear,170,2013-06-17 15:55:00
12:15 PM,68.0,59.0,73,29.78,10.0,South,12.7,19.6,N/A,,Clear,190,2013-06-17 16:15:00
12:35 PM,69.8,59.0,68,29.78,10.0,South,9.2,-,N/A,,Clear,190,2013-06-17 16:35:00
12:55 PM,71.6,60.8,69,29.78,10.0,South,9.2,-,N/A,,Clear,190,2013-06-17 16:55:00
1:15 PM,71.6,60.8,69,29.77,10.0,South,10.4,-,N/A,,Clear,180,2013-06-17 17:15:00
1:35 PM,69.8,60.8,73,29.77,10.0,South,11.5,-,N/A,,Clear,190,2013-06-17 17:35:00
1:55 PM,69.8,60.8,73,29.77,10.0,South,13.8,-,N/A,,Clear,190,2013-06-17 17:55:00
2:16 PM,69.8,59.0,68,29.78,10.0,South,12.7,-,N/A,,Clear,180,2013-06-17 18:16:00
2:35 PM,69.8,60.8,73,29.77,10.0,South,9.2,-,N/A,,Clear,180,2013-06-17 18:35:00
2:55 PM,69.8,60.8,73,29.77,10.0,SSE,10.4,-,N/A,,Clear,160,2013-06-17 18:55:00
3:15 PM,71.6,60.8,69,29.76,10.0,SSW,10.4,16.1,N/A,,Clear,200,2013-06-17 19:15:00
3:35 PM,69.8,59.0,68,29.77,10.0,SSW,8.1,-,N/A,,Clear,210,2013-06-17 19:35:00
3:55 PM,69.8,62.6,78,29.77,10.0,West,8.1,-,N/A,,Mostly Cloudy,260,2013-06-17 19:55:00
4:15 PM,71.6,60.8,69,29.80,10.0,North,5.8,-,N/A,Thunderstorm,Mostly Cloudy,360,2013-06-17 20:15:00
4:35 PM,64.4,60.8,88,29.82,9.0,North,3.5,-,N/A,Thunderstorm,Mostly Cloudy,360,2013-06-17 20:35:00
4:55 PM,64.4,60.8,88,29.84,5.0,SSW,10.4,-,0.23,Thunderstorm,Thunderstorm,210,2013-06-17 20:55:00
5:15 PM,62.6,60.8,94,29.79,8.0,East,8.1,-,0.02,Thunderstorm,Mostly Cloudy,90,2013-06-17 21:15:00
5:35 PM,62.6,60.8,94,29.82,9.0,SSE,8.1,-,0.02,,Mostly Cloudy,160,2013-06-17 21:35:00
5:55 PM,62.6,60.8,94,29.81,8.0,East,3.5,-,0.02,,Overcast,80,2013-06-17 21:55:00
6:15 PM,62.6,60.8,94,29.80,9.0,ESE,8.1,-,N/A,,Partly Cloudy,110,2013-06-17 22:15:00
6:35 PM,60.8,60.8,100,29.80,9.0,ESE,5.8,-,N/A,,Clear,110,2013-06-17 22:35:00
6:55 PM,60.8,59.0,94,29.80,10.0,SSE,3.5,-,N/A,,Clear,150,2013-06-17 22:55:00
7:15 PM,60.8,57.2,88,29.81,10.0,SSE,3.5,-,N/A,,Clear,150,2013-06-17 23:15:00
7:35 PM,60.8,57.2,88,29.81,10.0,Calm,Calm,-,N/A,,Partly Cloudy,0,2013-06-17 23:35:00
7:55 PM,60.8,57.2,88,29.82,10.0,SSW,3.5,-,N/A,,Partly Cloudy,210,2013-06-17 23:55:00
8:15 PM,60.8,57.2,88,29.82,10.0,SSW,4.6,-,N/A,,Partly Cloudy,200,2013-06-18 00:15:00
8:35 PM,59.0,55.4,88,29.83,10.0,South,6.9,-,N/A,,Partly Cloudy,190,2013-06-18 00:35:00
8:55 PM,57.2,55.4,94,29.84,10.0,SSW,6.9,-,N/A,,Clear,200,2013-06-18 00:55:00
9:15 PM,57.2,55.4,94,29.84,10.0,SSW,3.5,-,N/A,,Partly Cloudy,200,2013-06-18 01:15:00
9:35 PM,57.2,57.2,100,29.85,10.0,SW,4.6,-,N/A,,Mostly Cloudy,230,2013-06-18 01:35:00
9:55 PM,57.2,57.2,100,29.85,10.0,WSW,4.6,-,N/A,,Overcast,250,2013-06-18 01:55:00
10:15 PM,59.0,57.2,94,29.85,10.0,West,6.9,-,N/A,,Overcast,260,2013-06-18 02:15:00
10:35 PM,59.0,57.2,94,29.85,10.0,West,8.1,-,N/A,,Overcast,260,2013-06-18 02:35:00
10:55 PM,59.0,57.2,94,29.85,10.0,WSW,4.6,-,N/A,,Overcast,240,2013-06-18 02:55:00
11:15 PM,59.0,57.2,94,29.84,10.0,SW,5.8,-,N/A,,Mostly Cloudy,230,2013-06-18 03:15:00
11:35 PM,57.2,55.4,94,29.84,10.0,SW,4.6,-,N/A,,Partly Cloudy,230,2013-06-18 03:35:00
11:55 PM,57.2,55.4,94,29.84,7.0,WNW,5.8,-,N/A,,Clear,290,2013-06-18 03:55:00